Content
SEND FEEDBACK

Daily
Averages
Monthly
Summary
Algeria

MAGHNIA, ALGERIA


Home > Africa > Algeria
Elevation: 1398 feet     Latitude: 34 49N     Longitude: 001 46W

WEATHER
 
SELECT A DAY
Number of Records: 164,839;   Date Range: 7/1/96 - 7/27/14
 
SHARE

PRINT THIS DATA

[ ← Previous Day ]
WEATHER ALMANAC - JANUARY 31, 2013
[ Next Day → ]
[ °C ]   °F
Weather ElementAverageHighLow
Temperature53.8 °F73.4 °F (3:00 pm)42.8 °F (7:00 am)
Dewpoint42.5 °F51 °F (11:45 am)35.6 °F (6:00 am)
Humidity65.3 %82 % (8:00 pm)29 % (3:00 pm)
Barometer30.47 in30.53 in (8:46 am)30.38 in (3:00 pm)
Wind Speed3.7 mph8.1 mph (4:00 pm)
Weather ElementAverage
Visibility12.3 mi
Wind DirectionSSE (149.1 °)

Weather ElementTotal
Precipitation---
Heating Degree Days6.9 (Base 65)
Growing Degree Days8.1 (Base 50)
Averaged from 25 records on January 31, 2013
WEATHER CONDITIONS BREAKOUT
WIND DIRECTION BREAKOUT
WEATHER BY HOUR - JANUARY 31, 2013
[ °C ]   °F
Local TimeTemperatureDewpointHumidityBarometerVisibilityWind DirectionWind SpeedGust SpeedPrecipitationEventsConditions
12:00 AM50.0 °F39.2 °F66 %30.48 inSW (220°)4.6 mphClear
1:00 AM46.4 °F37.4 °F71 %30.48 inSW (220°)3.5 mphClear
2:00 AM46.4 °F37.4 °F71 %30.48 inSW (220°)3.5 mphClear
3:00 AM45.0 °F38.0 °F67 %30.51 in6.0 miCalm
3:00 AM46.4 °F37.4 °F71 %30.48 inCalmClear
4:00 AM46.4 °F37.4 °F71 %30.45 inWSW (250°)6.9 mphClear
5:00 AM46.4 °F37.4 °F71 %30.45 inWest (280°)3.5 mphClear
6:00 AM44.0 °F36.0 °F64 %30.51 in16.0 miWest (260°)4.6 mph
6:00 AM44.6 °F35.6 °F71 %30.45 inWSW (250°)5.8 mphClear
7:00 AM42.8 °F35.6 °F76 %30.48 inWest (270°)4.6 mphClear
8:00 AM46.4 °F39.2 °F76 %30.48 inNW (310°)3.5 mphClear
8:46 AM49.0 °F40.0 °F64 %30.53 in12.0 miCalm
9:00 AM50.0 °F41.0 °F71 %30.51 inCalmClear
11:00 AM62.6 °F50.0 °F63 %30.51 inNNE (30°)4.6 mphClear
11:45 AM67.0 °F51.0 °F45 %30.46 in12.0 miCalm
12:00 PM68.0 °F50.0 °F52 %30.51 inCalmClear
2:00 PM71.6 °F48.2 °F43 %30.45 inVariable3.5 mphClear
3:00 PM73.0 °F47.0 °F29 %30.38 in16.0 miNorth (10°)2.3 mph
3:00 PM73.4 °F48.2 °F41 %30.42 inVariable2.3 mphClear
4:00 PM71.6 °F50.0 °F46 %30.42 inNorth (10°)8.1 mphClear
8:00 PM51.8 °F46.4 °F82 %30.45 inWSW (240°)8.1 mphClear
8:45 PM51.0 °F46.0 °F76 %30.47 in12.0 miWSW (240°)8.1 mph
9:00 PM51.8 °F46.4 °F82 %30.45 inWSW (240°)8.1 mphClear
10:00 PM50.0 °F44.6 °F82 %30.45 inSW (230°)5.8 mphClear
11:00 PM48.2 °F42.8 °F82 %30.45 inCalmClear
Hourly data recorded from GMFO, located miles away from Maghnia, Algeria







STORIES FROM OUR PARTNERS